Flag for Belgium Weather past 2 weeks in Brussels, Belgium

Now
66 °F

Mild.


Feels Like: 66 °F
Forecast: 56 / 68 °F
Wind: 2 mph from Southwest

Location: Uccle

Current Time: Sep 1, 2014 at 2:07:40 PM

Latest Report: Sep 1, 2014 at 1:00 PM


Visibility: N/A

Pressure: 30.17 "Hg

Humidity: 58%

Dew point: 51 °F

Location of BrusselsLocation

Historic Weather in Brussels — Graph

°F

Brussels temperature yesterday

Maximum temperature yesterday: 64 °F (at 2:00 PM)
Minimum temperature yesterday: 56 °F (at 5:00 AM)
Average temperature yesterday: 59 °F

Past Weeks' High & Low Weather Summary

 TemperatureHumidityPressure
High70 °F (Aug 28, 5:00 PM)95% (Aug 26, 5:00 AM)30.18 "Hg (Aug 26, 5:00 AM)
Low47 °F (Aug 20, 6:00 AM)45% (Aug 24, 4:00 PM)29.61 "Hg (Aug 26, 4:00 AM)
Average58 °F81%29.95 "Hg
* Reported Aug 17 12:00 Noon — Sep 1 12:00 Noon, Brussels, Weather by CustomWeather, © 2014

Note: Actual official high and low records may vary slightly from our data, if they occured in-between our weather recording intervals... More about our weather records

Advertising

Brussels weather history for previous 24 hours

 ConditionsComfort  
Time TempWeatherWind HumidityBarometerVisibility
12:00 PM
Sep 1
64 °FMild.2 mph70%30.18 "HgN/A
11:00 AM62 °FCool.2 mph78%30.18 "HgN/A
10:00 AM59 °FCool.1 mph94%30.17 "HgN/A
9:00 AM53 °FCool.1 mph95%30.16 "HgN/A
8:00 AM50 °FCool.1 mph94%30.16 "HgN/A
7:00 AM49 °FCool.1 mph94%30.15 "HgN/A
6:00 AM49 °FCool.1 mph94%30.16 "HgN/A
5:00 AM50 °FCool.2 mph93%30.15 "HgN/A
4:00 AM50 °FCool.2 mph92%30.14 "HgN/A
3:00 AM51 °FCool.1 mph92%30.14 "HgN/A
2:00 AM52 °FCool.2 mph91%30.14 "HgN/A
1:00 AM53 °FCool.1 mph89%30.13 "HgN/A
12:00 AM55 °FCool.2 mph86%30.12 "HgN/A
11:00 PM
Aug 31
57 °FCool.2 mph83%30.10 "HgN/A
10:00 PM57 °FCool.3 mph80%30.09 "HgN/A
9:00 PM58 °FCool.2 mph75%30.07 "HgN/A
8:00 PM60 °FCool.5 mph70%30.05 "HgN/A
7:00 PM62 °FCool.5 mph67%30.04 "HgN/A
6:00 PM64 °FMild.7 mph58%30.03 "HgN/A
5:00 PM63 °FMild.8 mph70%30.01 "HgN/A
4:00 PM63 °FMild.6 mph77%30.00 "HgN/A
3:00 PM61 °FCool.2 mph83%30.00 "HgN/A
2:00 PM64 °FMild.5 mph79%30.01 "HgN/A
Weather by CustomWeather, © 2014

See weather overviewHow to use our weather pages